Hattiesburg, MS

11:52 AM CDT on August 24, 2016 (GMT -0500)
Chain Municipal

Weather History for KHBG - October, 2013

Change the Weather History Date:

Sunday, October 20, 2013

  Actual Average Record
Temperature  
Mean Temperature 62 °F 66 °F  
Max Temperature 74 °F 79 °F 90 °F (1963)
Min Temperature 50 °F 53 °F 32 °F (1948)
Degree Days  
Heating Degree Days 3 3  
Month to date heating degree days 6 30  
Since 1 July heating degree days 6 32  
Cooling Degree Days 0 3  
Month to date cooling degree days 158 104  
Year to date cooling degree days 2367 2331  
Growing Degree Days 12 (Base 50)    
Moisture  
Dew Point 51 °F    
Average Humidity 70    
Maximum Humidity 96    
Minimum Humidity 44    
Precipitation  
Precipitation 0.00 in 0.12 in 0.63 in (1984)
Month to date precipitation 0.71 2.47  
Year to date precipitation 57.92 48.71  
Sea Level Pressure  
Sea Level Pressure 30.05 in    
Wind  
Wind Speed 2 mph (NNW)    
Max Wind Speed 8 mph    
Max Gust Speed 10 mph    
Visibility 10 miles    
Events      
T = Trace of Precipitation, MM = Missing Value Source: NWS Daily Summary

Daily Weather History Graph

Daily Weather History Graph

Search for Another Location

Airport or City:

Trip Planner

Search our weather history database for the weather conditions in past years. The results will help you decide how hot, cold, wet, or windy it might be!

Date:

Astronomy

Oct. 20, 2013 Rise Set
Actual Time 7:03 AM CDT 6:19 PM CDT
Civil Twilight 6:39 AM CDT 6:43 PM CDT
Nautical Twilight 6:10 AM CDT 7:12 PM CDT
Astronomical Twilight 5:42 AM CDT 7:40 PM CDT
Moon 7:35 PM CDT (10/20) 8:34 AM CDT (10/20)
Length of Visible Light 12h 04m
Length of Day
11h 15m
Full, 97% of the Moon is Illuminated
Oct 20
Full
Oct 26
Last Quarter
Nov 3
New
Nov 9
First Quarter
Nov 17
Full

Hourly Weather History & Observations

Time (CDT) Temp. Dew Point Humidity Pressure Visibility Wind Dir Wind Speed Gust Speed Precip Events Conditions
12:53 AM 55.9 °F 52.0 °F 87% 30.05 in 10.0 mi NNW 4.6 mph - N/A   Mostly Cloudy
1:53 AM 55.0 °F 51.1 °F 86% 30.05 in 10.0 mi NNW 5.8 mph - N/A   Mostly Cloudy
2:53 AM 54.0 °F 51.1 °F 90% 30.06 in 10.0 mi NNW 3.5 mph - N/A   Partly Cloudy
3:53 AM 53.1 °F 50.0 °F 89% 30.06 in 10.0 mi NNW 4.6 mph - N/A   Clear
4:53 AM 53.1 °F 50.0 °F 89% 30.06 in 10.0 mi North 3.5 mph - N/A   Partly Cloudy
5:53 AM 51.1 °F 48.9 °F 92% 30.07 in 10.0 mi North 3.5 mph - N/A   Clear
6:53 AM 51.1 °F 48.0 °F 89% 30.08 in 10.0 mi NNW 3.5 mph - N/A   Clear
7:53 AM 52.0 °F 48.0 °F 86% 30.09 in 10.0 mi North 4.6 mph - N/A   Clear
8:53 AM 54.0 °F 48.0 °F 80% 30.10 in 10.0 mi NNE 3.5 mph - N/A   Clear
9:53 AM 57.9 °F 48.9 °F 72% 30.10 in 10.0 mi Calm Calm - N/A   Clear
10:53 AM 62.1 °F 51.1 °F 67% 30.10 in 10.0 mi Calm Calm - N/A   Clear
11:53 AM 66.0 °F 53.1 °F 63% 30.08 in 10.0 mi WNW 3.5 mph - N/A   Clear
12:53 PM 69.1 °F 52.0 °F 54% 30.06 in 10.0 mi Calm Calm - N/A   Clear
1:53 PM 71.1 °F 51.1 °F 49% 30.03 in 10.0 mi NNW 4.6 mph - N/A   Clear
2:53 PM 73.0 °F 51.1 °F 46% 30.01 in 10.0 mi North 5.8 mph - N/A   Clear
3:53 PM 73.0 °F 51.1 °F 46% 30.00 in 10.0 mi Calm Calm - N/A   Clear
4:53 PM 73.0 °F 50.0 °F 44% 30.00 in 10.0 mi Calm Calm - N/A   Clear
5:53 PM 70.0 °F 51.1 °F 51% 30.01 in 10.0 mi North 3.5 mph - N/A   Clear
6:53 PM 61.0 °F 55.0 °F 81% 30.01 in 10.0 mi Calm Calm - N/A   Clear
7:53 PM 57.9 °F 54.0 °F 87% 30.03 in 10.0 mi Calm Calm - N/A   Clear
8:53 PM 55.9 °F 53.1 °F 90% 30.04 in 10.0 mi Calm Calm - N/A   Clear
9:53 PM 53.1 °F 51.1 °F 93% 30.04 in 10.0 mi Calm Calm - N/A   Clear
10:53 PM 51.1 °F 50.0 °F 96% 30.04 in 9.0 mi Calm Calm - N/A   Clear
11:53 PM 51.1 °F 48.9 °F 92% 30.04 in 10.0 mi Calm Calm - N/A   Clear